This is the latest recevied weather packets stored in our database for station/object PD2BVG. If no packets are shown the sender has not sent any weather packets the latest 10 day(s).
| Time | Temp. | Humidity | Pressure | Rain* | Wind** | Luminosity | Snow |
|---|---|---|---|---|---|---|---|
| 1778231438 | 16.11° C | 64% | 1018.4 hPa | 0 mm | - | 461 W/m² | - |
| 1778231377 | 16.11° C | 67% | 1018.4 hPa | 0 mm | - | 408 W/m² | - |
| 1778231318 | 16.11° C | 65% | 1018.4 hPa | 0 mm | - | 420 W/m² | - |
| 1778231257 | 16.11° C | 65% | 1018.4 hPa | 0 mm | - | 420 W/m² | - |
| 1778231198 | 16.11° C | 65% | 1018.5 hPa | 0 mm | - | 420 W/m² | - |
| 1778231137 | 16.11° C | 64% | 1018.5 hPa | 0 mm | - | 431 W/m² | - |
| 1778231077 | 16.11° C | 64% | 1018.5 hPa | 0 mm | - | 436 W/m² | - |
| 1778231018 | 16.11° C | 63% | 1018.4 hPa | 0 mm | - | 426 W/m² | - |
| 1778230957 | 16.11° C | 63% | 1018.4 hPa | 0 mm | - | 419 W/m² | - |
| 1778230897 | 16.11° C | 63% | 1018.4 hPa | 0 mm | - | 429 W/m² | - |
| 1778230837 | 16.11° C | 64% | 1018.4 hPa | 0 mm | - | 452 W/m² | - |
| 1778230777 | 16.11° C | 63% | 1018.4 hPa | 0 mm | - | 445 W/m² | - |
| 1778230717 | 16.11° C | 64% | 1018.4 hPa | 0 mm | - | 459 W/m² | - |
| 1778230657 | 16.11° C | 64% | 1018.3 hPa | 0 mm | - | 434 W/m² | - |
| 1778230597 | 16.11° C | 67% | 1018.4 hPa | 0 mm | - | 429 W/m² | - |
| 1778230539 | 16.11° C | 67% | 1018.4 hPa | 0 mm | - | 447 W/m² | - |
| 1778230478 | 16.11° C | 67% | 1018.4 hPa | 0 mm | - | 554 W/m² | - |
| 1778230417 | 16.11° C | 67% | 1018.4 hPa | 0 mm | - | 563 W/m² | - |
| 1778230357 | 15.56° C | 69% | 1018.4 hPa | 0 mm | - | 431 W/m² | - |
| 1778230297 | 15.56° C | 69% | 1018.3 hPa | 0 mm | - | 440 W/m² | - |
| 1778230237 | 15.56° C | 69% | 1018.4 hPa | 0 mm | - | 406 W/m² | - |
| 1778230178 | 15.56° C | 69% | 1018.4 hPa | 0 mm | - | 408 W/m² | - |
| 1778230118 | 15.56° C | 70% | 1018.4 hPa | 0 mm | - | 420 W/m² | - |
| 1778230057 | 15.56° C | 69% | 1018.4 hPa | 0 mm | - | 410 W/m² | - |
| 1778229998 | 15.56° C | 70% | 1018.4 hPa | 0 mm | - | 398 W/m² | - |
* Rain latest hour (hover to see other rain measurements)
** Current wind speed in m/s (hover to see current wind gust speed)